Location: Newark
(22.3060°N, 114.2134°E)
Time: 01:44:21
(UTC+00:00)

Envisat - Visible Passes

Search period start: 09 April 2020 00:00
Search period end: 19 April 2020 00:00
Orbit: 764 x 766 km, 98.1° (Epoch: 08 April)

Date Brightness Start Highest point End Pass type
(mag) Time Alt. Az. Time Alt. Az. Time Alt. Az.
09 Apr 5.2 10:57:33 10° SSW 11:01:58 30° W 11:06:24 10° NW visible
09 Apr 6.0 21:38:59 10° ENE 21:41:53 15° E 21:44:46 10° SE visible
11 Apr 6.0 11:24:36 10° SW 11:27:31 15° W 11:30:26 10° WNW visible
12 Apr 6.4 21:29:11 10° E 21:30:31 11° E 21:31:52 10° ESE visible
14 Apr 5.8 11:12:26 10° SW 11:16:10 21° W 11:19:53 10° NW visible
17 Apr 5.4 11:00:33 10° SSW 11:04:49 27° W 11:09:05 10° NW visible
